www.pogodaiklimat.ru

Погода и климат >> Архив погоды >> Россия >> Ямало-Ненецкий АО >> Пангоды


ПОГОДА в Пангодах

  • Прогноз погоды в Пангодах
  • Монитор погоды в Пангодах

АРХИВ ПОГОДЫ в Пангодах

Время (UTC), дата Ветер
(напр.,м/с)
 
Видим.   Явления Облачность Т
(С)
Тd
(С)
f
(%)
Тe
(С)
Тes
(С)
Комфортность P
(гПа)
Po
(гПа)
Тmin
(С)
Tmax
(С)
R
(мм)
R24
(мм)
S
(см)
00 17.01 штиль 0 20 км {снег} 10/0
[As op]
-19.5 -21.2 86 -20 -20 1013.0 1005.9
03 17.01 Ю 1 20 км 10/3 600 м
[Sc As op]
-20.0 -21.7 86 -23 -23 1013.3 1006.3 -21.8 0.2 64
06 17.01 Ю 1 10 км 10/10 200 м
[St]
-18.5 -20.0 88 -21 -21 1012.5 1005.4
09 17.01 Ю 2 2000 м снег {метель} 10/0
[As op]
-14.4 -15.5 91 -19 -19 1009.4 1002.5
12 17.01 Ю 5-10
{10}
4000 м слаб. снег {метель} 10/0
[As op]
-10.4 -11.1 95 -18 -18 1004.7 997.9
15 17.01 Ю 6-10
{11}
4000 м слаб. снег {метель} [диам. изморози 0 мм] 10/6 300 м
[Sc As op]
-5.5 -5.9 97 -14 -14 1001.6 994.9 -5.5 2
18 17.01 ЮЗ 8-14
{15}
4000 м слаб. снег {метель} 10/0
[As op]
-4.9 -7.2 84 -14 -14 999.4 992.8
21 17.01 ЮЗ 6-11
{16}
4000 м слаб. снег {метель} 10/3 300 м
[Sc As trans]
-6.7 -8.8 85 -15 -15 998.4 991.8
00 18.01 ЮЗ 5
{14}
4000 м слаб. снег {метель} 10/0
[As op]
-7.9 -9.0 92 -16 -16 996.2 989.6
03 18.01 ЮЗ 6-10
{12}
4000 м слаб. снег {метель} 10/5 300 м
[Frnb As op]
-8.3 -9.4 92 -17 -17 994.6 987.9 -8.4 1 63
06 18.01 ЮЗ 5
{12}
4000 м слаб. снег {метель} 10/5 300 м
[Frnb Ac As]
-8.3 -9.4 92 -16 -16 994.6 988.2 -8.5
09 18.01 ЮЗ 5 4000 м слаб. ливневой снег 10/6 300 м
[Cb cap Cs]
-8.2 -9.1 93 -16 -16 995.7 989.1
12 18.01 ЮЗ 5
{12}
4000 м слаб. ливневой снег 10/6 300 м
[Cb cap As trans]
-7.8 -8.5 95 -15 -15 996.3 989.7
15 18.01 ЮЗ 5
{11}
4000 м слаб. ливневой снег {метель} 10/8 300 м
[Cb cap As op]
-7.8 -8.5 95 -15 -15 995.8 989.2 -7.7 1
18 18.01 ЮЗ 5
{11}
4000 м слаб. снег 10/4 300 м
[Cb cap As op]
-7.8 -8.6 94 -15 -15 994.6 988.0
21 18.01 ЮЗ 4
{10}
4000 м слаб. снег {метель} 10/0
[Ac As]
-9.2 -10.1 93 -16 -16 993.7 987.0
00 19.01 ЮЗ 3 4000 м слаб. снег {метель} 10/0
[As op]
-9.6 -10.4 94 -16 -16 992.1 985.4
03 19.01 ЮЗ 2 4000 м слаб. снег {метель} 10/0
[As op]
-9.7 -10.5 94 -14 -14 990.5 983.9 -9.9 3 65
06 19.01 З 3 4000 м слаб. снег {метель} 10/0
[As op]
-10.3 -11.2 93 -16 -16 991.1 984.4 -10.8
09 19.01 З 3 4000 м слаб. снег 10/0
[Ac As Ci fib]
-11.3 -12.4 92 -17 -17 994.1 987.4
12 19.01 З 2 10 км слаб. снег 10/0
[Ac trans Cs]
-18.1 -19.6 88 -24 -24 998.4 991.5
15 19.01 ЮЗ 2 20 км {снег} ясно -20.4 -22.2 85 -26 -26 1000.5 993.5 -9.7 1
18 19.01 ЮЗ 3 20 км {снег} ясно -22.2 -24.1 84 -30 -30 1001.9 994.8
21 19.01 З 2 20 км ясно -23.3 -25.3 84 -30 -30 1003.1 996.0
00 20.01 З 2 20 км 4/0
[Ac trans]
-24.1 -26.3 82 -31 -31 опасность
обморожения
1004.0 996.9
03 20.01 З 1 4000 м слаб. снег 10/0
[Ac As]
-21.6 -23.5 85 -25 -25 1005.3 998.2 -24.4 0.0 65
06 20.01 З 1 50 км {снег} ясно -22.9 -24.9 84 -26 -26 1007.9 1000.8
09 20.01 З 1 50 км ясно -23.9 -26.1 82 -27 -27 1010.2 1003.1
12 20.01 Ю 1 20 км ясно -28.2 -30.9 78 -32 -32 опасность
обморожения
1012.5 1005.2
15 20.01 Ю 1 20 км 8/0
[Ac trans]
-26.4 -29.0 79 -30 -30 1013.6 1006.4 -21.5 0.2
18 20.01 Ю 1 20 км 10/0
[Ac trans Cs]
-28.7 -31.5 77 -33 -33 опасность
обморожения
1014.4 1007.0
21 20.01 В 2 20 км 10/0
[As op]
-29.0 -31.7 77 -36 -36 опасность
обморожения
1015.2 1007.8
00 21.01 ЮВ 2 10 км слаб. снег 10/0
[As trans]
-24.1 -26.3 82 -31 -31 опасность
обморожения
1014.6 1007.4
03 21.01 В 3 20 км {снег} 10/0
[As trans]
-20.9 -22.8 85 -29 -29 1013.1 1006.0 -29.0 0.0 65
06 21.01 В 5 20 км позёмок {снег} 10/0
[As op]
-17.6 -19.5 85 -27 -27 1010.6 1003.6
09 21.01 В 6 2000 м снег {метель} 10/0
[As op]
-16.0 -17.6 87 -26 -26 1006.6 999.7
12 21.01 ЮВ 6
{10}
4000 м слаб. снег {метель} 10/0
[Ac As]
-13.4 -14.7 90 -23 -23 1003.4 996.6
15 21.01 ЮВ 6
{10}
4000 м слаб. снег {метель} 10/0
[As trans]
-13.2 -14.5 90 -22 -22 1000.3 993.5 -13.2 0.9
18 21.01 ЮВ 3 4000 м слаб. снег {метель} 10/8 300 м
[Sc As op]
-12.0 -13.0 92 -18 -18 999.3 992.5
21 21.01 ЮЗ 3 4000 м слаб. снег {метель} 10/0
[As op]
-13.8 -14.9 91 -20 -20 1000.0 993.2
00 22.01 ЮЗ 3 20 км {снег, метель} 6/0
[Ci fib]
-18.7 -20.4 86 -26 -26 1001.8 994.8
03 22.01 ЮЗ 3 20 км 3/0
[Ci fib]
-23.4 -25.4 84 -32 -32 опасность
обморожения
1003.8 996.7 -23.5 2 65
06 22.01 ЮЗ 3 50 км 8/8 100 м
[St]
-24.4 -26.5 83 -33 -33 опасность
обморожения
1005.2 998.1 -25.7
09 22.01 ЮЗ 3 50 км 3/0
[Ci sp]
-24.0 -26.2 82 -32 -32 опасность
обморожения
1006.3 999.2
12 22.01 ЮВ 2 20 км ледяные иглы {снег} 6/0
[Ac trans]
-24.8 -27.0 82 -31 -31 опасность
обморожения
1007.2 1000.0
15 22.01 Ю 1 10 км слаб. снег 8/0
[Ac trans Ci fib]
-25.3 -27.6 81 -29 -29 1007.7 1000.6 -22.4 0.0
18 22.01 Ю 1 10 км слаб. снег 10/0
[Ac As]
-22.1 -24.1 84 -25 -25 1008.1 1001.0
21 22.01 Ю 2 20 км в посл. час снег 8/0
[Ac trans]
-23.6 -25.7 83 -30 -30 1008.7 1001.5
00 23.01 ЮВ 2 10 км слаб. снег 10/0
[As op]
-24.1 -26.3 82 -31 -31 опасность
обморожения
1008.8 1001.6
03 23.01 В 1 10 км слаб. снег 10/0
[As trans]
-25.3 -27.6 81 -29 -29 1009.0 1001.8 -25.6 0.4 65
06 23.01 Ю 1 20 км {снег} 10/0
[Ac trans Cs]
-21.4 -23.3 85 -25 -25 1009.7 1002.6
09 23.01 ЮВ 1 50 км {снег} 3/0
[Cc]
-24.1 -26.3 82 -28 -28 1011.4 1004.2
12 23.01 Ю 1 20 км {снег} 4/0
[Ac trans]
-25.0 -27.3 81 -29 -29 1012.7 1005.5
15 23.01 Ю 1 20 км ледяные иглы {снег} 3/0
[Ci fib]
-28.0 -30.6 78 -32 -32 опасность
обморожения
1014.3 1007.0 -21.4 0.4
18 23.01 ЮВ 1 20 км {снег} 3/0
[Ac trans]
-29.2 -32.0 77 -33 -33 опасность
обморожения
1015.2 1007.9

 

Местоположение метеостанции Пангоды (Ямало-Ненецкий АО, Россия): широта 65.83 долгота 74.50 высота над уровнем моря 52 м.

В архиве по умолчанию представлена погода в Пангодах за последнюю неделю. Архивные данные за месяц целиком и за предыдущие месяцы, начиная с января 2011 года, Вы можете получить, выбрав интересующий диапазон дат из раскрывающегося списка и нажав кнопку "Ввод!".


*Определитесь, кто Вы:
робот инопланетянин человек

Внимание! Время в таблицах - всемирное. Для получения местного времени необходимо прибавить поправку, которая равна 5 ч.

Смотрите также архив погоды в соседних городах и на ближайших метеорологических станциях:

Погода в Надыме (Ямало-Ненецкий АО, Россия) (93 км)
Погода в Новом Уренгое (Ямало-Ненецкий АО, Россия) (108 км)
Погода в Ныде (Ямало-Ненецкий АО, Россия) (113 км)
Погода в Уренгое (Ямало-Ненецкий АО, Россия) (178 км)
Погода в Тарко-Сале (Ямало-Ненецкий АО, Россия) (184 км)
Погода в Лонг-Югане (Ямало-Ненецкий АО, Россия) (203 км)
Погода в Новом Порте (Ямало-Ненецкий АО, Россия) (218 км)
Погода в Тазовском (Ямало-Ненецкий АО, Россия) (261 км)
Погода в Полуе (Ямало-Ненецкий АО, Россия) (265 км)
Погода в Ноябрьске (Ямало-Ненецкий АО, Россия) (304 км)

Пояснения к столбцам:

Ветер - указаны скорость ветра в м/с - средняя за 10 мин, порывы в срок и между сроками (в фигурных скобках) и направление, откуда дует ветер: С - северный, СВ - северо-восточный, В - восточный, ЮВ - юго-восточный, Ю - южный, ЮЗ - юго-западный, З - западный, СЗ - северо-западный.
Видимость - горизонтальная дальность видимости в метрах или километрах. При видимости от 1 до 10 км при отсутствии осадков обычно наблюдается дымка, при ухудшении видимости до 1 км и менее - туман. В сухую погоду видимость может ухудшаться дымом, пылью или мглою.
Явления - указаны атмосферные явления, наблюдавшиеся в срок или в последний час перед сроком; фигурными скобками обозначены явления, наблюдавшиеся между сроками (за 1-3 часа до срока); квадратными скобками обозначены град или гололедные отложения с указанием их диаметра в мм.
Облачность - указаны через наклонную черту общая и нижняя облачность в баллах и высота нижней границы облаков в метрах; квадратными скобками обозначены формы облаков: Ci - перистые, Cs - перисто-слоистые, Cc - перисто-кучевые, Ac - высококучевые, As - высокослоистые, Sc - слоисто-кучевые, Ns - слоисто-дождевые, Cu - кучевые, Cb - кучево-дождевые. Подробнее классификацию облаков см. в Атласе облаков (PDF).
T - Температура воздуха - температура, измеренная на высоте 2 м над землей.
Td - Температура точки росы - температура, при понижении до которой содержащийся в воздухе водяной пар достигнет насыщения.
f - Относительная влажность воздуха - влажноcть воздуха, измеренная на высоте 2 м над землей.
Te - Эффективная температура - температура, которую ощущает одетый по сезону человек в тени. Характеристика душности погоды. При расчете учитывается влияние влажности воздуха и скорости ветра на теплоощущения человека.
Tes - Эффективная температура на солнце - температура, которую ощущает человек, с поправкой на солнечный нагрев. Характеристика знойности погоды. Зависит от высоты солнца над горизонтом, облачности и скорости ветра. Ночью, в пасмурную погоду, а также при ветре 12 м/с и более поправка равна нулю.
P - Атмосферное давление - приведенное к уровню моря атмосферное давление.
Po - Атмосферное давление - измеренное на уровне метеостанции атмосферное давление.
Tmin - Минимальная температура - минимум температуры воздуха на высоте 2 м над землей.
Tmax - Максимальная температура - максимум температуры воздуха на высоте 2 м над землей.
R - Количество осадков - Количество выпавших осадков за период времени, мм. При наведении курсора мыши на число - период времени, за который выпало указанное количество осадков.
R24 - Количество осадков - Количество выпавших осадков за 24 часа, мм.
S - Снежный покров - Высота снежного покрова, см. При наведении курсора мыши на число - состояние снежного покрова и степень покрытия местности в баллах.